Hourly Weather Roundup
Issued by NWS

Home | Current Version | Previous Version | Text Only | Print | Product List | Glossary On
Versions: 1 2 3 4 5 6 7 8 9 10 11 12 13 14 15 16 17 18 19 20 21 22 23 24 25 26 27 28 29 30 31 32 33 34 35 36 37 38 39 40 41 42 43 44 45 46 47 48 49 50
250
NZUS43 KILX 251310
HWRCRS

NWR Hourly Weather Roundup
National Weather Service Lincoln IL
700 AM CST SUN FEB 25 2018


CITY           SKY/WX    TMP DP  RH WIND       PRES   REMARKS
Champaign      CLOUDY    34  31  88 SW14      29.93R WCI  25
Lawrenceville  FAIR      39  31  72 W12       30.04R WCI  32
Peoria         CLOUDY    33  26  75 W15G25    29.91R WCI  23
Springfield    FAIR      34  29  82 W15       29.94R WCI  24
$$


CITY           SKY/WX    TMP DP  RH WIND       PRES   REMARKS
Bloomington    CLOUDY    33  28  81 W21       29.90R WCI  21
Danville       CLOUDY    33  29  82 SW13      29.90R WCI  24
Decatur        FAIR      33  29  85 W10       29.94R WCI  25
Effingham      FAIR      35  32  89 SW8       30.01R WCI  28
Flora          FAIR      39  32  75 W9        30.03R WCI  33
Galesburg      FAIR      30  27  86 W10       29.90R WCI  21
Jacksonville   CLEAR     32  28  83 SW9       29.95R WCI  24
Lacon          CLOUDY    33  26  76 W16G23    29.88R WCI  22
La Salle       CLOUDY    32  26  76 W18G30    29.85R WCI  21
Lincoln        FAIR      33  31  92 W6        29.94R WCI  28
Litchfield     CLEAR     32  30  91 SW9       29.98R WCI  25

CITY           SKY/WX    TMP DP  RH WIND       PRES   REMARKS
Macomb         CLEAR    N/A N/A N/A W18G24    29.93R
Mattoon        FAIR      33  29  85 SW8       29.96R WCI  26
Moline         FAIR      31  24  75 W13       29.86R WCI  21
Olney          FAIR      37  32  81 CALM      30.04R
Paris          MOCLDY    33  31  92 SW8       29.99R WCI  26
Pontiac        CLOUDY    34  32  92 W17       29.89R WCI  23
Quincy         CLEAR     30  25  81 W12       29.95R WCI  20
Rantoul        CLOUDY    36  32  86 SW13G22   29.91R WCI  27
Robinson       FAIR      37  31  79 W12       30.03R WCI  29
Taylorville    FAIR      33  29  88 SW12      29.97R WCI  24
Terre Haute    FAIR      36  30  79 W7        29.99R WCI  30
$$


CITY           SKY/WX    TMP DP  RH WIND       PRES   REMARKS
Burlington     CLEAR     30  22  72 W10       29.91R WCI  21
Chicago        CLOUDY    34  26  72 W16G25    29.77R WCI  24
Des Moines     CLEAR     24  17  74 SW13      29.89R WCI  12
Evansville     FAIR      42  37  82 VRB5      30.05R
Indianapolis   MOCLDY    36  30  79 W18       29.95R WCI  26
Kansas City    CLEAR     24  19  81 SW8       29.98S WCI  15
Milwaukee      FAIR      32  23  69 W23G37    29.66R WCI  19
St Louis       PTCLDY    34  30  85 W6        30.01R WCI  29
$$





USA.gov is the U.S. government's official web portal to all federal, state and local government web resources and services.